Jefferson, OH

5:44 AM EST on February 21, 2017 (GMT -0500)
Ashtabula County

Weather History for KHZY - April, 2014

Change the Weather History Date:

Monday, April 28, 2014

  Actual Average (KGKJ) Record (KGKJ)
Temperature  
Mean Temperature 51 °F -  
Max Temperature 60 °F 62 °F 89 °F (1990)
Min Temperature 43 °F 35 °F 22 °F (1968)
Degree Days  
Heating Degree Days 14    
Growing Degree Days 1 (Base 50)    
Moisture  
Dew Point 34 °F    
Average Humidity 53    
Maximum Humidity 64    
Minimum Humidity 37    
Precipitation  
Precipitation 0.01 in - - ()
Sea Level Pressure  
Sea Level Pressure 29.97 in    
Wind  
Wind Speed 11 mph (East)    
Max Wind Speed 20 mph    
Max Gust Speed 23 mph    
Visibility 10 miles    
Events Rain    
Averages and records for this station are not official NWS values.
T = Trace of Precipitation, MM = Missing Value Source: NWS Daily Summary

Daily Weather History Graph

Daily Weather History Graph

Search for Another Location

Airport or City:

Trip Planner

Search our weather history database for the weather conditions in past years. The results will help you decide how hot, cold, wet, or windy it might be!

Date:

Astronomy

Apr. 28, 2014 Rise Set
Actual Time 6:23 AM EDT 8:17 PM EDT
Civil Twilight 5:53 AM EDT 8:48 PM EDT
Nautical Twilight 5:16 AM EDT 9:24 PM EDT
Astronomical Twilight 4:37 AM EDT 10:04 PM EDT
Moon 6:01 AM EDT (4/28) 7:53 PM EDT (4/28)
Length of Visible Light 14h 54m
Length of Day
13h 54m
Waning Crescent, 0% of the Moon is Illuminated
Apr 28
Waning Crescent
Apr 29
New
May 6
First Quarter
May 14
Full
May 21
Last Quarter

Hourly Weather History & Observations

Time (EDT) Temp. Windchill Dew Point Humidity Pressure Visibility Wind Dir Wind Speed Gust Speed Precip Events Conditions
1:53 AM 46.0 °F 40.2 °F 30.0 °F 54% 30.08 in 10.0 mi East 12.7 mph - N/A   Clear
2:53 AM 44.1 °F 39.0 °F 28.9 °F 55% 30.07 in 10.0 mi East 9.2 mph - N/A   Clear
4:53 AM 43.0 °F 38.8 °F 28.9 °F 58% 30.06 in 10.0 mi East 6.9 mph - N/A   Clear
6:53 AM 43.0 °F 37.7 °F 28.9 °F 58% 30.06 in 10.0 mi East 9.2 mph - N/A   Clear
7:53 AM 45.0 °F 38.2 °F 28.9 °F 53% 30.05 in 10.0 mi East 15.0 mph 23.0 mph N/A   Clear
8:53 AM 48.0 °F - 30.0 °F 50% 30.03 in 10.0 mi East 19.6 mph - N/A   Clear
9:53 AM 52.0 °F - 30.0 °F 43% 30.03 in 10.0 mi ESE 12.7 mph - N/A   Clear
10:53 AM 54.0 °F - 30.9 °F 41% 29.99 in 10.0 mi East 16.1 mph - N/A   Clear
11:53 AM 57.0 °F - 32.0 °F 39% 29.97 in 10.0 mi East 12.7 mph - N/A   Clear
12:53 PM 57.9 °F - 32.0 °F 37% 29.95 in 10.0 mi East 12.7 mph - N/A   Clear
1:53 PM 59.0 °F - 33.1 °F 38% 29.96 in 10.0 mi South 9.2 mph - N/A   Overcast
2:53 PM 55.9 °F - 35.1 °F 45% 29.94 in 10.0 mi NNE 5.8 mph - N/A   Overcast
3:53 PM 54.0 °F - 36.0 °F 51% 29.92 in 10.0 mi NNE 5.8 mph - 0.00 in Rain Light Rain
5:53 PM 52.0 °F - 39.9 °F 63% 29.91 in 10.0 mi NNE 3.5 mph - 0.01 in Rain Light Rain
6:53 PM 53.1 °F - 39.0 °F 59% 29.92 in 10.0 mi NE 5.8 mph - 0.00 in   Overcast
7:53 PM 52.0 °F - 39.0 °F 61% 29.91 in 10.0 mi NE 4.6 mph - N/A   Overcast
8:53 PM 54.0 °F - 41.0 °F 62% 29.88 in 10.0 mi ESE 10.4 mph - N/A   Overcast
9:53 PM 53.1 °F - 41.0 °F 64% 29.88 in 10.0 mi ESE 16.1 mph 21.9 mph N/A   Overcast
10:53 PM 53.1 °F - 39.9 °F 61% 29.86 in 10.0 mi ESE 13.8 mph - N/A   Overcast
11:53 PM 53.1 °F - 41.0 °F 64% 29.86 in 10.0 mi SE 11.5 mph - N/A   Overcast